Weather observations for the past three days for
Davis-Monthan Air Force Base
Imperial (Metric)
Date Time (mst) Wind (mph) Vis. (mi.) Weather Sky Cond. Temperature (ºF) Relative Humidity Wind Chill (°F) Heat Index (°F) Pressure Precipitation (in)
Air Dwpt 6 hour altimeter (in) sea level (mb) 1 hr 3 hr 6 hr
Max. Min.
14 21:55 SE 3 10.00 Fair CLR 79.2 66.4 65% 81 30.08 1013.9
14 20:55 SE 3 10.00 Partly Cloudy SCT200 79.9 63.7 58% 81 30.06 1013.2
14 19:55 SE 7 10.00 Partly Cloudy SCT160 79.3 61.2 54% 81 30.03 1012.4 0.06
14 18:55 NE 10 10.00 Mostly Cloudy BKN130 79.2 60.4 53% 80 30.05 1013.2
14 17:55 W 18 10.00 Thunderstorm SCT055 BKN100 BKN120 81.5 64.8 57% 83 30.01 1011.8 0.06
14 16:55 W 12 10.00 Partly Cloudy SCT090 100.9 55 101.7 91.8 22% 99 29.98 1010.0
14 15:55 W 12 G 24 10.00 Thunderstorm FEW080 BKN140 100.6 54.7 22% 99 29.98 1010.0
14 14:55 NW 8 G 17 10.00 Fair CLR 100 55.6 23% 99 30.01 1011.0
14 13:55 W 7 10.00 Fair CLR 99.1 55.9 24% 98 30.05 1012.4
14 12:55 NW 9 10.00 A Few Clouds FEW200 95.7 56.3 27% 94 30.07 1013.1
14 11:55 NW 8 G 18 10.00 Fair CLR 94.6 56.5 28% 93 30.1 1014.0
14 10:55 W 9 10.00 Fair CLR 91.9 58.6 92.3 80.1 33% 91 30.11 1014.4
14 09:55 W 7 10.00 Fair CLR 90 60.8 38% 90 30.12 1014.8
14 08:55 N 3 10.00 Fair CLR 87.6 62.2 43% 88 30.13 1015.1
14 07:55 Calm 10.00 Fair CLR 84.7 62.2 47% 85 30.13 1015.1
14 06:55 S 6 10.00 Fair CLR 82.4 63 52% 84 30.12 1014.8
14 05:55 S 7 10.00 Fair CLR 80.2 63.1 56% 82 30.11 1014.3
14 04:55 S 6 10.00 Fair CLR 81 61.2 91.2 81 51% 82 30.08 1013.3
14 03:55 S 7 10.00 Partly Cloudy SCT150 81 61.2 51% 82 30.08 1013.3
14 02:55 S 10 10.00 Fair CLR 81.5 62.6 53% 83 30.07 1013.0
14 01:55 S 15 G 21 10.00 Fair CLR 84.6 63.9 50% 86 30.06 1012.6
14 00:55 Calm 10.00 Fair CLR 88.7 61.9 41% 89 30.06 1012.5
13 23:55 SW 6 10.00 A Few Clouds FEW150 89.8 61.5 39% 90 30.06 1012.5
13 22:55 SW 8 10.00 Fair CLR 91.4 59 106.3 90.3 34% 91 30.05 1012.2
13 21:55 SE 3 10.00 Fair CLR 92.3 55.4 29% 90 30.01 1010.9
13 20:55 S 6 10.00 Fair CLR 94.5 53.1 25% 92 29.98 1009.9
13 19:55 SW 9 10.00 Fair CLR 97.3 52 22% 95 29.96 1009.2
13 18:55 W 15 G 21 10.00 Fair CLR 101.1 51.3 19% 98 29.92 1007.8
13 17:55 NW 7 10.00 Fair CLR 105.8 32.4 8% 100 29.91 1007.5
13 16:55 NW 7 10.00 Fair CLR 105.6 32.2 106.3 96.8 8% 99 29.92 1007.8
13 15:55 Calm 10.00 Fair CLR 105.1 31.8 8% 99 29.94 1008.5
13 14:55 N 6 10.00 A Few Clouds FEW140 105.4 35.1 9% 100 29.97 1009.4
13 13:55 Calm 10.00 Fair CLR 102.9 35.8 10% 97 30 1010.7
13 12:55 Calm 10.00 A Few Clouds FEW160 101.5 41.4 13% 97 30.02 1011.1
13 11:55 Calm 10.00 Fair CLR 100 44.1 15% 96 30.04 1011.8
13 10:55 Calm 10.00 Fair CLR 96.8 50.4 96.8 77.9 21% 94 30.05 1012.3
13 09:55 S 6 10.00 Fair CLR 94.6 52.2 24% 92 30.06 1012.6
13 08:55 S 7 10.00 Fair CLR 92.5 57.4 31% 91 30.06 1012.6
13 07:55 S 10 10.00 Fair CLR 88.3 54.7 32% 86 30.06 1012.6
13 06:55 S 13 10.00 Fair CLR 84.2 48.4 29% 82 30.04 1011.9
13 05:55 SE 10 10.00 Fair CLR 79.7 44.6 29% 79 30.02 1011.2
13 04:55 SE 8 10.00 Fair CLR 80.2 43.2 88.5 79 27% 79 29.99 1010.2
13 03:55 SE 8 10.00 Fair CLR 79.5 42.6 27% 79 29.98 1009.9
13 02:55 S 8 10.00 Fair CLR 83.1 36.5 19% 81 29.96 1009.2
13 01:55 S 3 10.00 Fair CLR 81.9 42.6 25% 80 29.96 1009.2
13 00:55 Calm 10.00 Fair CLR 87.1 39.7 19% 84 29.97 1009.4
12 23:55 SE 8 10.00 Fair CLR 88 40.5 19% 84 29.97 1009.5
12 22:55 SE 9 10.00 Fair CLR 88.9 50.5 105.1 88.2 27% 86 29.97 1009.5
12 21:55 SE 6 10.00 Fair CLR 90.9 53.2 28% 88 29.95 1008.8
12 20:55 SW 5 10.00 Fair CLR 95 47.7 20% 91 29.92 1007.8
12 19:55 W 6 10.00 Fair CLR 97.2 46.6 18% 93 29.89 1006.9
12 18:55 NE 5 10.00 Partly Cloudy SCT140 102.9 38.3 11% 98 29.86 1005.9
12 17:55 N 3 10.00 Fair CLR 105.1 37.4 10% 100 29.85 1005.5
12 16:55 NE 9 10.00 Mostly Cloudy BKN150 104.9 37.2 106.5 95.7 10% 99 29.85 1005.5
12 15:55 E 7 10.00 Fair CLR 105.4 37.8 10% 100 29.87 1006.3
12 14:55 E 7 10.00 A Few Clouds FEW130 105.3 42.3 12% 100 29.89 1006.9
12 13:55 NE 9 10.00 Partly Cloudy FEW120 SCT150 103.6 45 14% 99 29.92 1007.9
12 12:55 Calm 10.00 A Few Clouds FEW160 FEW210 100.8 44.6 15% 97 29.95 1009.0
12 11:55 NW 7 10.00 Fair CLR 98.6 47.7 18% 95 29.97 1009.8
12 10:55 NW 6 10.00 Fair CLR 95.5 50.5 95.5 75 22% 92 29.99 1010.5
12 09:55 N 6 10.00 Fair CLR 93.2 53.2 26% 91 30 1010.9
12 08:55 NW 5 10.00 Fair CLR 89.6 53.1 29% 87 30 1011.0
12 07:55 SW 8 10.00 Fair CLR 85.1 56.7 38% 84 29.99 1010.8
12 06:55 SE 7 10.00 Fair CLR 81.3 56.7 43% 81 29.98 1010.6
12 05:55 SE 12 10.00 Fair CLR 76.8 58.3 53% 79 29.97 1010.8
12 04:55 SE 8 10.00 Mostly Cloudy BKN170 75.4 60.4 82.8 75 60% 78 29.97 1009.9
12 03:55 SE 7 10.00 Fair CLR 75 63.3 67% 77 29.95 1009.0
12 02:55 SE 8 10.00 Fair CLR 75.7 62.2 63% 78 29.96 1009.3
12 01:55 E 8 10.00 Fair CLR 79.3 60.1 52% 80 29.97 1009.6
12 00:55 SE 9 10.00 Fair CLR 82.2 62.2 51% 83 29.98 1009.9
11 23:55 Calm 10.00 Fair CLR 81.5 60.4 49% 82 29.98 1009.9
11 22:55 SW 3 10.00 Fair CLR 81.7 58.8 99.7 78.6 46% 82 29.96 1009.3
Date Time (mst) Wind (mph) Vis. (mi.) Weather Sky Cond. Air Dwpt Max. Min. Relative Humidity Wind Chill (°F) Heat Index (°F) altimeter (in) sea level (mb) 1 hr 3 hr 6 hr
6 hour
Temperature (ºF) Pressure Precipitation (in)